Domov               UVHVVR             MKGP            O straneh              
ZDRAVSTVENO VARSTVO RASTLIN
  MREŽA AGROMET. POSTAJ
 ► PROGNOSTIČNA OBVESTILA
AGROMETEOROLOŠKI PODATKI -
ARSO
OBVLADOVANJE TVEGANJ ZARADI
NEUGODNIH VREMENSKIH RAZMER
  ► NARAVNE NESREČE
  ► SUŠA/MOČA
  ► NAMAKANJE
  ► ŽLED (gozdarstvo)
KARTOGRAFSKI PRIKAZI
SPLETNE POVEZAVE
PROJEKTI IN PUBLIKACIJE

AGROMETEOROLOŠKA MREŽA: VREMENSKE POSTAJE IN FENOLOŠKA OPAZOVANJA

Pregled podatkov za lokacijo Vidonci, meteorološka postaja 42838

Pregled senzorjev na lokaciji

ID Ime Zadnja
vrednost
Datum
zadnje
spremembe
Tip
senzorja
2110 Omočenost lista (U) 0 U 17.8.2017 06:30 A730WET
2111 Temperatura 2 m ( °C) 16,69 °C 17.8.2017 06:30 50YA
2112 Relativna vlaga 2 m (% RH) 80,33 % RH 17.8.2017 06:30 50YA
2113 Padavine 0.2 mm (mm) 0 mm 17.8.2017 06:30 Rain-O-Matic

Pregled podatkov zadnjih 24 ur

Zap.
št.
Datum in čas Vidonci
Omočenost
lista
Padavine
0.2
mm
Relativna
vlaga
2
m
Temperatura
2
m
0 17.8.2017 05:30 0 0 80,33 16,69
1 17.8.2017 05:00 0 0 78,98 16,97
2 17.8.2017 04:30 0 0 81,43 16,54
3 17.8.2017 04:00 0 0 81,7 16,61
4 17.8.2017 03:30 0 0 80,11 17,06
5 17.8.2017 03:00 0 0 76 17,84
6 17.8.2017 02:30 0 0 75,44 18,12
7 17.8.2017 02:00 0 0 74,22 18,4
8 17.8.2017 01:30 0 0 76,63 18,23
9 17.8.2017 01:00 0 0 80,31 17,96
10 17.8.2017 00:30 0 0 83,02 17,68
11 17.8.2017 00:00 0 0 77,9 18,46
12 16.8.2017 23:30 0 0 78,37 18,58
13 16.8.2017 23:00 0 0 79,67 18,61
14 16.8.2017 22:30 0 0 78,53 18,92
15 16.8.2017 22:00 0 0 78,38 19,08
16 16.8.2017 21:30 0 0 73,95 19,81
17 16.8.2017 21:00 0 0 71,92 20,34
18 16.8.2017 20:30 0 0 69,07 20,81
19 16.8.2017 20:00 0 0 64,44 21,63
20 16.8.2017 19:30 0 0 62,21 22
21 16.8.2017 19:00 0 0 61,05 22,48
22 16.8.2017 18:30 0 0 59,81 23,29
23 16.8.2017 18:00 0 0 56,68 24,34
24 16.8.2017 17:30 0 0 50,25 25,99
25 16.8.2017 17:00 0 0 48,14 27,18
26 16.8.2017 16:30 0 0 50,42 27,06
27 16.8.2017 16:00 0 0 40,75 27,85
28 16.8.2017 15:30 0 0 35,14 27,72
29 16.8.2017 15:00 0 0 31,35 28,58
30 16.8.2017 14:30 0 0 32,53 28,42
31 16.8.2017 14:00 0 0 31,94 28,87
32 16.8.2017 13:30 0 0 34,28 28,52
33 16.8.2017 13:00 0 0 36,49 28,25
34 16.8.2017 12:30 0 0 34,45 28,22
35 16.8.2017 12:00 0 0 37,59 27,88
36 16.8.2017 11:30 0 0 40,98 27,59
37 16.8.2017 11:00 0 0 40,76 27,23
38 16.8.2017 10:30 0 0 42,16 27,23
39 16.8.2017 10:00 0 0 44,53 26,62
40 16.8.2017 09:30 0 0 47,79 26,21
41 16.8.2017 09:00 0 0 51,63 25,13
42 16.8.2017 08:30 0 0 62,35 23,07
43 16.8.2017 08:00 0 0 59,97 22,96
© 2011 Ministrstvo za kmetijstvo, gozdarstvo in prehrano. Vse pravice pridržane.